Location: Hengforden
(52.3167°N, 6.1333°E)
Time: 15:08:24
(UTC+00:00)

Cosmos 1328 Rocket - Pass Details

Date: 14 June 2025
Orbit: 595 x 620 km, 82.5° (Epoch: 19 July)

Event Time Altitude Azimuth Distance (km) Brightness Sun altitude
Rises 21:07:12 0° 201° (SSW) 2,872 6.6 -7.7°
Reaches altitude 10° 21:09:27 10° 205° (SSW) 1,975 5.8 -7.9°
Maximum altitude 21:13:45 56° 284° (WNW) 739 4.3 -8.3°
Drops below altitude 10° 21:18:07 10° 4° (N) 2,000 7.1 -8.6°
Sets 21:20:24 0° 9° (N) 2,912 7.9 -8.8°
